H05 EFSA-EFUT

Flight info

Callsign H05
Flight time 1h 5m
Altitude 2500
Route ROTPE EFIM PARTAKOSKI HERMU
Aircraft H500/L-S/C

Departure

Time 2026-04-20 09:32
Airport Savonlinna Airport (EFSA)

Arrival

Time 2026-04-20 10:38
Airport Utti Air Base (EFUT)
Time Latitude Longitude Altitude Speed Heading
2026-04-20 09:21 61.94346 28.93442 304 ft 0 kts 192°
2026-04-20 09:24 61.94346 28.93443 305 ft 2 kts 193°
2026-04-20 09:24 61.94345 28.93425 320 ft 5 kts 199°
2026-04-20 09:25 61.94364 28.93385 320 ft 6 kts 335°
2026-04-20 09:25 61.94386 28.93358 318 ft 2 kts 334°
2026-04-20 09:25 61.94415 28.93315 321 ft 11 kts 335°
2026-04-20 09:25 61.94488 28.93331 325 ft 17 kts 25°
2026-04-20 09:26 61.94612 28.93506 334 ft 16 kts 15°
2026-04-20 09:26 61.94646 28.93510 330 ft 9 kts 297°
2026-04-20 09:26 61.94781 28.93089 388 ft 58 kts 308°
2026-04-20 09:26 61.95091 28.92215 449 ft 88 kts 310°
2026-04-20 09:27 61.95488 28.91042 621 ft 104 kts 288°
2026-04-20 09:27 61.95778 28.89479 664 ft 124 kts 280°
2026-04-20 09:27 61.96015 28.87647 663 ft 136 kts 271°
2026-04-20 09:27 61.96086 28.85616 658 ft 140 kts 263°
2026-04-20 09:28 61.95920 28.83564 663 ft 143 kts 242°
2026-04-20 09:28 61.95539 28.81581 655 ft 145 kts 235°
2026-04-20 09:28 61.95107 28.79663 654 ft 143 kts 236°
2026-04-20 09:28 61.94682 28.77745 657 ft 143 kts 234°
2026-04-20 09:29 61.94278 28.75806 656 ft 143 kts 236°
2026-04-20 09:29 61.93907 28.73904 657 ft 139 kts 238°
2026-04-20 09:29 61.93523 28.72076 659 ft 132 kts 245°
2026-04-20 09:29 61.93089 28.70388 662 ft 130 kts 244°
2026-04-20 09:30 61.92650 28.68694 659 ft 130 kts 246°
2026-04-20 09:30 61.92258 28.66969 661 ft 130 kts 248°
2026-04-20 09:30 61.91870 28.65212 663 ft 133 kts 248°
2026-04-20 09:30 61.91455 28.63426 663 ft 136 kts 248°
2026-04-20 09:31 61.91020 28.61663 663 ft 133 kts 244°
2026-04-20 09:31 61.90554 28.60017 665 ft 130 kts 240°
2026-04-20 09:31 61.89999 28.58461 665 ft 132 kts 236°
2026-04-20 09:31 61.89287 28.57250 677 ft 131 kts 215°
2026-04-20 09:32 61.88540 28.56229 784 ft 125 kts 215°
2026-04-20 09:32 61.87884 28.55104 845 ft 119 kts 229°
2026-04-20 09:32 61.87402 28.53773 1009 ft 112 kts 243°
2026-04-20 09:32 61.86987 28.52351 1143 ft 115 kts 248°
2026-04-20 09:33 61.86571 28.50889 1309 ft 117 kts 247°
2026-04-20 09:33 61.86167 28.49385 1487 ft 119 kts 248°
2026-04-20 09:33 61.85759 28.47844 1642 ft 121 kts 246°
2026-04-20 09:33 61.85354 28.46269 1786 ft 123 kts 248°
2026-04-20 09:34 61.84862 28.44747 1909 ft 129 kts 231°
2026-04-20 09:34 61.84129 28.43500 1888 ft 138 kts 215°
2026-04-20 09:34 61.82345 28.41871 1896 ft 145 kts 201°
2026-04-20 09:35 61.81396 28.41146 1888 ft 143 kts 200°
2026-04-20 09:35 61.80469 28.40477 1894 ft 140 kts 192°
2026-04-20 09:35 61.79524 28.40674 1897 ft 137 kts 151°
2026-04-20 09:35 61.78689 28.41669 1892 ft 138 kts 148°
2026-04-20 09:36 61.77845 28.42613 1895 ft 137 kts 149°
2026-04-20 09:36 61.76993 28.43516 1894 ft 137 kts 151°
2026-04-20 09:36 61.76146 28.44449 1892 ft 136 kts 148°
2026-04-20 09:36 61.75603 28.45119 1891 ft 135 kts 142°
2026-04-20 09:37 61.74660 28.46801 1889 ft 130 kts 131°
2026-04-20 09:37 61.74036 28.48115 1892 ft 127 kts 129°
2026-04-20 09:37 61.73419 28.49434 1895 ft 127 kts 130°
2026-04-20 09:37 61.72787 28.50750 1892 ft 127 kts 131°
2026-04-20 09:38 61.72142 28.52044 1889 ft 128 kts 131°
2026-04-20 09:38 61.71708 28.52889 1889 ft 128 kts 132°
2026-04-20 09:38 61.71044 28.54178 1895 ft 133 kts 132°
2026-04-20 09:38 61.70268 28.55310 1883 ft 137 kts 149°
2026-04-20 09:39 61.69391 28.56095 1886 ft 136 kts 156°
2026-04-20 09:39 61.68501 28.56754 1890 ft 136 kts 156°
2026-04-20 09:39 61.67608 28.57399 1887 ft 134 kts 156°
2026-04-20 09:39 61.66741 28.58132 1886 ft 134 kts 152°
2026-04-20 09:40 61.65888 28.58941 1889 ft 133 kts 148°
2026-04-20 09:40 61.65086 28.59891 1888 ft 131 kts 144°
2026-04-20 09:40 61.64356 28.60976 1888 ft 129 kts 132°
2026-04-20 09:40 61.63730 28.62339 1893 ft 131 kts 126°
2026-04-20 09:41 61.63141 28.63812 1878 ft 129 kts 125°
2026-04-20 09:41 61.62577 28.65294 1883 ft 130 kts 122°
2026-04-20 09:41 61.62015 28.66782 1882 ft 129 kts 124°
2026-04-20 09:41 61.61467 28.68257 1887 ft 128 kts 123°
2026-04-20 09:42 61.60902 28.69724 1883 ft 130 kts 128°
2026-04-20 09:42 61.60186 28.70931 1885 ft 134 kts 146°
2026-04-20 09:42 61.59317 28.71622 1884 ft 137 kts 165°
2026-04-20 09:42 61.58372 28.71828 1883 ft 135 kts 176°
2026-04-20 09:43 61.57440 28.72040 1883 ft 136 kts 170°
2026-04-20 09:43 61.56470 28.72425 1878 ft 142 kts 160°
2026-04-20 09:43 61.55551 28.73114 1878 ft 142 kts 152°
2026-04-20 09:43 61.54649 28.73942 1880 ft 141 kts 151°
2026-04-20 09:44 61.53771 28.74795 1883 ft 137 kts 149°
2026-04-20 09:44 61.52918 28.75667 1881 ft 135 kts 150°
2026-04-20 09:44 61.52083 28.76529 1882 ft 133 kts 149°
2026-04-20 09:44 61.51246 28.77384 1883 ft 134 kts 150°
2026-04-20 09:45 61.50415 28.78248 1875 ft 132 kts 150°
2026-04-20 09:45 61.49570 28.78950 1874 ft 132 kts 165°
2026-04-20 09:45 61.48640 28.79067 1873 ft 137 kts 184°
2026-04-20 09:45 61.47696 28.78757 1876 ft 137 kts 191°
2026-04-20 09:46 61.46788 28.78156 1880 ft 139 kts 202°
2026-04-20 09:46 61.45888 28.77365 1873 ft 141 kts 205°
2026-04-20 09:46 61.44996 28.76533 1875 ft 141 kts 203°
2026-04-20 09:46 61.44063 28.75885 1873 ft 141 kts 194°
2026-04-20 09:47 61.43100 28.75530 1872 ft 139 kts 186°
2026-04-20 09:47 61.42147 28.75388 1874 ft 138 kts 181°
2026-04-20 09:47 61.41193 28.75468 1879 ft 136 kts 174°
2026-04-20 09:47 61.40255 28.75652 1879 ft 136 kts 174°
2026-04-20 09:48 61.39299 28.75858 1872 ft 140 kts 173°
2026-04-20 09:48 61.38322 28.76063 1866 ft 140 kts 173°
2026-04-20 09:48 61.37375 28.76275 1872 ft 135 kts 172°
2026-04-20 09:48 61.36451 28.76597 1872 ft 135 kts 166°
2026-04-20 09:49 61.35525 28.77038 1873 ft 137 kts 163°
2026-04-20 09:49 61.34595 28.77509 1851 ft 139 kts 163°
2026-04-20 09:49 61.33641 28.77978 1772 ft 142 kts 162°
2026-04-20 09:49 61.32692 28.78580 1671 ft 142 kts 148°
2026-04-20 09:50 61.31852 28.79641 1593 ft 141 kts 140°
2026-04-20 09:50 61.31064 28.80877 1471 ft 142 kts 135°
2026-04-20 09:50 61.30281 28.82158 1308 ft 143 kts 135°
2026-04-20 09:50 61.29496 28.83463 1146 ft 145 kts 137°
2026-04-20 09:51 61.28717 28.84794 1051 ft 141 kts 136°
2026-04-20 09:51 61.27977 28.86020 1065 ft 135 kts 141°
2026-04-20 09:51 61.27181 28.87029 1071 ft 132 kts 145°
2026-04-20 09:51 61.26379 28.87810 1071 ft 122 kts 156°
2026-04-20 09:52 61.25556 28.88000 1075 ft 119 kts 184°
2026-04-20 09:52 61.24760 28.87664 1065 ft 113 kts 191°
2026-04-20 09:52 61.24005 28.87321 982 ft 107 kts 174°
2026-04-20 09:52 61.23388 28.87734 924 ft 82 kts 122°
2026-04-20 09:53 61.23286 28.88634 866 ft 60 kts 57°
2026-04-20 09:53 61.23641 28.89096 765 ft 64 kts 24°
2026-04-20 09:53 61.24016 28.89484 675 ft 51 kts 21°
2026-04-20 09:53 61.24276 28.89716 556 ft 32 kts 25°
2026-04-20 09:54 61.24480 28.89896 481 ft 36 kts 27°
2026-04-20 09:54 61.24733 28.90112 395 ft 36 kts 24°
2026-04-20 09:54 61.24883 28.90240 353 ft 15 kts 27°
2026-04-20 09:54 61.24954 28.90284 359 ft 6 kts 331°
2026-04-20 09:55 61.24970 28.90141 361 ft 14 kts 287°
2026-04-20 09:55 61.24952 28.89966 343 ft 10 kts 220°
2026-04-20 09:55 61.24909 28.89885 339 ft 8 kts 220°
2026-04-20 09:55 61.24857 28.89789 346 ft 17 kts 217°
2026-04-20 09:56 61.24776 28.89639 344 ft 13 kts 219°
2026-04-20 09:56 61.24727 28.89514 345 ft 9 kts 224°
2026-04-20 09:56 61.24717 28.89486 335 ft 0 kts 222°
2026-04-20 09:58 61.24691 28.89488 340 ft 9 kts 143°
2026-04-20 09:58 61.24628 28.89583 357 ft 13 kts 111°
2026-04-20 09:58 61.24574 28.89802 364 ft 14 kts 111°
2026-04-20 09:58 61.24551 28.89923 350 ft 6 kts 62°
2026-04-20 09:59 61.24578 28.89980 380 ft 19 kts 22°
2026-04-20 09:59 61.24850 28.90217 420 ft 59 kts 25°
2026-04-20 09:59 61.25274 28.90584 617 ft 71 kts 26°
2026-04-20 09:59 61.25803 28.90588 791 ft 84 kts 344°
2026-04-20 10:00 61.26221 28.89629 949 ft 98 kts 310°
2026-04-20 10:00 61.26592 28.88380 1006 ft 104 kts 314°
2026-04-20 10:00 61.27131 28.87400 999 ft 103 kts 330°
2026-04-20 10:00 61.27736 28.86579 1006 ft 106 kts 332°
2026-04-20 10:01 61.28333 28.85706 1006 ft 107 kts 329°
2026-04-20 10:01 61.28914 28.84745 1004 ft 107 kts 327°
2026-04-20 10:01 61.29493 28.83786 1007 ft 106 kts 328°
2026-04-20 10:01 61.30081 28.82852 1005 ft 107 kts 328°
2026-04-20 10:02 61.30661 28.81929 1088 ft 102 kts 328°
2026-04-20 10:02 61.31201 28.81048 1261 ft 96 kts 328°
2026-04-20 10:02 61.31695 28.80169 1431 ft 91 kts 327°
2026-04-20 10:02 61.32153 28.79315 1688 ft 86 kts 327°
2026-04-20 10:03 61.32581 28.78495 1967 ft 81 kts 327°
2026-04-20 10:03 61.33018 28.77681 2045 ft 97 kts 326°
2026-04-20 10:03 61.33579 28.76726 2020 ft 108 kts 328°
2026-04-20 10:03 61.34182 28.75727 2023 ft 114 kts 328°
2026-04-20 10:04 61.34820 28.74673 2017 ft 118 kts 328°
2026-04-20 10:04 61.35462 28.73589 2019 ft 120 kts 324°
2026-04-20 10:04 61.36028 28.72287 2025 ft 124 kts 315°
2026-04-20 10:04 61.36570 28.70864 2013 ft 124 kts 313°
2026-04-20 10:05 61.37082 28.69435 2024 ft 123 kts 314°
2026-04-20 10:05 61.37592 28.67987 2022 ft 125 kts 314°
2026-04-20 10:05 61.38105 28.66521 2021 ft 125 kts 313°
2026-04-20 10:05 61.38618 28.65047 2020 ft 128 kts 312°
2026-04-20 10:06 61.39137 28.63576 2024 ft 124 kts 314°
2026-04-20 10:06 61.39650 28.62131 2029 ft 124 kts 313°
2026-04-20 10:06 61.40167 28.60682 2026 ft 124 kts 314°
2026-04-20 10:06 61.40679 28.59233 2025 ft 124 kts 314°
2026-04-20 10:07 61.41164 28.57765 2026 ft 124 kts 306°
2026-04-20 10:07 61.41526 28.56068 2024 ft 130 kts 300°
2026-04-20 10:07 61.41838 28.54289 2020 ft 129 kts 297°
2026-04-20 10:07 61.42136 28.52574 2023 ft 123 kts 297°
2026-04-20 10:08 61.42437 28.50905 2022 ft 122 kts 298°
2026-04-20 10:08 61.42751 28.49274 2024 ft 120 kts 298°
2026-04-20 10:08 61.43078 28.47645 2022 ft 124 kts 299°
2026-04-20 10:08 61.43421 28.45984 2028 ft 126 kts 300°
2026-04-20 10:09 61.43774 28.44318 2023 ft 124 kts 300°
2026-04-20 10:09 61.44126 28.42668 2032 ft 127 kts 300°
2026-04-20 10:09 61.44483 28.40985 2024 ft 127 kts 300°
2026-04-20 10:09 61.44828 28.39311 2027 ft 124 kts 300°
2026-04-20 10:10 61.45157 28.37635 2028 ft 125 kts 299°
2026-04-20 10:10 61.45479 28.35986 2037 ft 122 kts 299°
2026-04-20 10:10 61.45547 28.34201 2028 ft 128 kts 261°
2026-04-20 10:10 61.45210 28.32478 2032 ft 130 kts 248°
2026-04-20 10:11 61.44793 28.30812 2029 ft 132 kts 248°
2026-04-20 10:11 61.44423 28.29066 2025 ft 131 kts 250°
2026-04-20 10:11 61.44041 28.27356 2030 ft 131 kts 249°
2026-04-20 10:11 61.43644 28.25609 2021 ft 132 kts 249°
2026-04-20 10:12 61.43255 28.23878 2032 ft 132 kts 249°
2026-04-20 10:12 61.42865 28.22096 2028 ft 136 kts 250°
2026-04-20 10:12 61.42476 28.20289 2027 ft 136 kts 250°
2026-04-20 10:12 61.42074 28.18526 2030 ft 133 kts 248°
2026-04-20 10:13 61.41682 28.16778 2030 ft 133 kts 251°
2026-04-20 10:13 61.41294 28.15032 2030 ft 133 kts 249°
2026-04-20 10:13 61.40884 28.13293 2028 ft 133 kts 248°
2026-04-20 10:13 61.40461 28.11587 2031 ft 132 kts 246°
2026-04-20 10:14 61.40031 28.09892 2030 ft 135 kts 246°
2026-04-20 10:14 61.39591 28.08189 2033 ft 132 kts 245°
2026-04-20 10:14 61.39157 28.06517 2037 ft 132 kts 246°
2026-04-20 10:14 61.38713 28.04792 2029 ft 136 kts 246°
2026-04-20 10:15 61.38269 28.03070 2031 ft 133 kts 246°
2026-04-20 10:15 61.37829 28.01353 2032 ft 135 kts 246°
2026-04-20 10:15 61.37386 27.99621 2030 ft 135 kts 246°
2026-04-20 10:15 61.36945 27.97901 2032 ft 134 kts 247°
2026-04-20 10:16 61.36497 27.96142 2031 ft 141 kts 246°
2026-04-20 10:16 61.36043 27.94359 2033 ft 138 kts 246°
2026-04-20 10:16 61.35598 27.92613 2034 ft 135 kts 246°
2026-04-20 10:16 61.35161 27.90893 2035 ft 134 kts 246°
2026-04-20 10:17 61.34725 27.89177 2037 ft 134 kts 246°
2026-04-20 10:17 61.34291 27.87465 2037 ft 133 kts 247°
2026-04-20 10:17 61.33860 27.85764 2037 ft 132 kts 246°
2026-04-20 10:17 61.33436 27.84088 2037 ft 132 kts 245°
2026-04-20 10:18 61.33008 27.82393 2035 ft 133 kts 246°
2026-04-20 10:18 61.32575 27.80681 2033 ft 134 kts 246°
2026-04-20 10:18 61.32144 27.78972 2035 ft 133 kts 246°
2026-04-20 10:18 61.31712 27.77270 2035 ft 133 kts 246°
2026-04-20 10:19 61.31278 27.75559 2034 ft 134 kts 246°
2026-04-20 10:19 61.30841 27.73832 2033 ft 135 kts 246°
2026-04-20 10:19 61.30403 27.72102 2035 ft 136 kts 246°
2026-04-20 10:19 61.29962 27.70345 2036 ft 139 kts 247°
2026-04-20 10:20 61.29517 27.68570 2032 ft 137 kts 247°
2026-04-20 10:20 61.29076 27.66827 2033 ft 135 kts 246°
2026-04-20 10:20 61.28640 27.65109 2035 ft 134 kts 246°
2026-04-20 10:20 61.28209 27.63418 2030 ft 132 kts 246°
2026-04-20 10:21 61.27778 27.61734 2034 ft 133 kts 246°
2026-04-20 10:21 61.27346 27.60044 2031 ft 132 kts 246°
2026-04-20 10:21 61.26914 27.58351 2031 ft 132 kts 247°
2026-04-20 10:21 61.26487 27.56689 2032 ft 129 kts 248°
2026-04-20 10:22 61.26060 27.55025 2036 ft 131 kts 247°
2026-04-20 10:22 61.25625 27.53322 2030 ft 135 kts 246°
2026-04-20 10:22 61.25185 27.51603 2031 ft 134 kts 247°
2026-04-20 10:22 61.24748 27.49896 2034 ft 134 kts 247°
2026-04-20 10:23 61.24314 27.48204 2031 ft 132 kts 245°
2026-04-20 10:23 61.23875 27.46495 2036 ft 136 kts 246°
2026-04-20 10:23 61.23433 27.44769 2033 ft 133 kts 245°
2026-04-20 10:23 61.22989 27.43044 2036 ft 137 kts 245°
2026-04-20 10:24 61.22550 27.41339 2032 ft 133 kts 244°
2026-04-20 10:24 61.22117 27.39662 2035 ft 131 kts 245°
2026-04-20 10:24 61.21683 27.37982 2035 ft 133 kts 245°
2026-04-20 10:24 61.21251 27.36308 2034 ft 130 kts 244°
2026-04-20 10:25 61.20823 27.34654 2038 ft 131 kts 245°
2026-04-20 10:25 61.20383 27.32955 2033 ft 134 kts 246°
2026-04-20 10:25 61.20090 27.31822 2039 ft 137 kts 245°
2026-04-20 10:25 61.19644 27.30086 2032 ft 135 kts 244°
2026-04-20 10:26 61.19204 27.28385 2033 ft 134 kts 246°
2026-04-20 10:26 61.18759 27.26667 2030 ft 136 kts 244°
2026-04-20 10:26 61.18266 27.25018 2033 ft 135 kts 231°
2026-04-20 10:26 61.17514 27.23890 2031 ft 134 kts 198°
2026-04-20 10:27 61.16607 27.23573 2033 ft 132 kts 180°
2026-04-20 10:27 61.15688 27.23533 2032 ft 132 kts 176°
2026-04-20 10:27 61.14771 27.23601 2032 ft 132 kts 173°
2026-04-20 10:27 61.13850 27.23714 2032 ft 133 kts 173°
2026-04-20 10:28 61.12947 27.23828 2032 ft 130 kts 174°
2026-04-20 10:28 61.12037 27.23935 2036 ft 132 kts 174°
2026-04-20 10:28 61.11122 27.24030 2020 ft 134 kts 175°
2026-04-20 10:28 61.10177 27.24115 1908 ft 138 kts 174°
2026-04-20 10:29 61.09202 27.24202 1832 ft 141 kts 173°
2026-04-20 10:29 61.08211 27.24284 1685 ft 144 kts 173°
2026-04-20 10:29 61.07197 27.24358 1480 ft 148 kts 173°
2026-04-20 10:29 61.06156 27.24436 1331 ft 151 kts 175°
2026-04-20 10:30 61.05131 27.24518 1301 ft 142 kts 175°
2026-04-20 10:30 61.04157 27.24612 1321 ft 139 kts 176°
2026-04-20 10:30 61.03216 27.24421 1320 ft 139 kts 195°
2026-04-20 10:30 61.02348 27.23567 1316 ft 137 kts 210°
2026-04-20 10:31 61.01552 27.22464 1319 ft 138 kts 216°
2026-04-20 10:31 61.00774 27.21315 1319 ft 138 kts 216°
2026-04-20 10:31 60.99991 27.20205 1317 ft 136 kts 214°
2026-04-20 10:31 60.99190 27.19132 1318 ft 138 kts 213°
2026-04-20 10:32 60.98370 27.18087 1300 ft 139 kts 211°
2026-04-20 10:32 60.97535 27.17043 1299 ft 141 kts 212°
2026-04-20 10:32 60.96711 27.16010 1300 ft 138 kts 212°
2026-04-20 10:32 60.95872 27.14946 1296 ft 144 kts 211°
2026-04-20 10:33 60.95019 27.13852 1285 ft 142 kts 211°
2026-04-20 10:33 60.94202 27.12800 1294 ft 136 kts 212°
2026-04-20 10:33 60.93404 27.11772 1298 ft 135 kts 213°
2026-04-20 10:33 60.92592 27.10738 1291 ft 142 kts 213°
2026-04-20 10:34 60.91760 27.09668 1295 ft 140 kts 211°
2026-04-20 10:34 60.90946 27.08629 1291 ft 135 kts 213°
2026-04-20 10:34 60.90131 27.07586 1290 ft 137 kts 211°
2026-04-20 10:35 60.88527 27.05542 1287 ft 135 kts 212°
2026-04-20 10:35 60.87755 27.04415 1266 ft 140 kts 221°
2026-04-20 10:35 60.87068 27.02951 1130 ft 145 kts 232°
2026-04-20 10:35 60.86507 27.01196 1011 ft 149 kts 245°
2026-04-20 10:36 60.86113 26.99227 843 ft 150 kts 259°
2026-04-20 10:36 60.85918 26.97141 680 ft 147 kts 271°
2026-04-20 10:36 60.85965 26.95118 638 ft 137 kts 287°
2026-04-20 10:36 60.86255 26.93390 639 ft 125 kts 303°
2026-04-20 10:37 60.86772 26.92018 636 ft 119 kts 324°
2026-04-20 10:37 60.87467 26.91270 637 ft 107 kts 348°
2026-04-20 10:37 60.88169 26.91213 637 ft 97 kts
2026-04-20 10:37 60.88736 26.91486 616 ft 68 kts
2026-04-20 10:38 60.89061 26.91698 534 ft 32 kts
2026-04-20 10:38 60.89191 26.91750 449 ft 10 kts
2026-04-20 10:38 60.89248 26.91777 390 ft 9 kts
2026-04-20 10:38 60.89284 26.91808 355 ft 2 kts 335°
2026-04-20 10:39 60.89243 26.91758 350 ft 10 kts 259°
2026-04-20 10:39 60.89227 26.91631 344 ft 9 kts 271°
2026-04-20 10:39 60.89220 26.91514 347 ft 8 kts 280°
2026-04-20 10:39 60.89232 26.91464 336 ft 4 kts 31°
2026-04-20 10:40 60.89242 26.91475 333 ft 1 kts 77°
2026-04-20 10:40 60.89244 26.91490 331 ft 2 kts 81°
2026-04-20 10:40 60.89244 26.91495 327 ft 0 kts 79°